Broken Bow, NE

4:31 PM CDT on October 18, 2017 (GMT -0500)
Broken Bow Municipal

Weather History for KBBW - May, 2013

Change the Weather History Date:

Thursday, May 16, 2013

  Actual Average Record
Temperature  
Mean Temperature 67 °F 59 °F  
Max Temperature 81 °F 71 °F 101 °F (1934)
Min Temperature 53 °F 47 °F 26 °F (1912)
Degree Days  
Heating Degree Days 0 7  
Month to date heating degree days 196 149  
Cooling Degree Days 2 1  
Month to date cooling degree days 18 9  
Year to date cooling degree days 18 10  
Growing Degree Days 17 (Base 50)    
Moisture  
Dew Point 52 °F    
Average Humidity 60    
Maximum Humidity 83    
Minimum Humidity 36    
Precipitation  
Precipitation 0.02 in 0.12 in 2.02 in (1902)
Snow  
Snow 0.00 in - - ()
Snow Depth -    
Sea Level Pressure  
Sea Level Pressure 29.79 in    
Wind  
Wind Speed 8 mph (SSE)    
Max Wind Speed 26 mph    
Max Gust Speed 60 mph    
Visibility 10 miles    
Events Rain , Thunderstorm    
T = Trace of Precipitation, MM = Missing Value Source: NWS Daily Summary

Daily Weather History Graph

Daily Weather History Graph

Search for Another Location

Airport or City:

Trip Planner

Search our weather history database for the weather conditions in past years. The results will help you decide how hot, cold, wet, or windy it might be!

Date:

Astronomy

May. 16, 2013 Rise Set
Actual Time 6:18 AM CDT 8:52 PM CDT
Civil Twilight 5:46 AM CDT 9:23 PM CDT
Nautical Twilight 5:07 AM CDT 10:03 PM CDT
Astronomical Twilight 4:22 AM CDT 10:48 PM CDT
Moon 11:54 AM CDT (5/16) 1:12 AM CDT (5/16)
Length of Visible Light 15h 37m
Length of Day
14h 33m
Waxing Crescent, 36% of the Moon is Illuminated
May 16
Waxing Crescent
May 17
First Quarter
May 24
Full
May 31
Last Quarter
Jun 8
New

Hourly Weather History & Observations

Time (CDT) Temp. Dew Point Humidity Pressure Visibility Wind Dir Wind Speed Gust Speed Precip Events Conditions
12:53 AM 64.0 °F 37.9 °F 38% 29.83 in 10.0 mi East 9.2 mph - N/A   Clear
1:53 AM 64.0 °F 37.9 °F 38% 29.82 in 10.0 mi East 8.1 mph - N/A   Clear
2:53 AM 62.1 °F 39.9 °F 44% 29.81 in 10.0 mi East 3.5 mph - N/A   Clear
3:53 AM 60.1 °F 42.1 °F 51% 29.79 in 10.0 mi SE 9.2 mph - N/A   Clear
4:53 AM 55.9 °F 43.0 °F 62% 29.81 in 10.0 mi ESE 3.5 mph - N/A   Clear
5:53 AM 54.0 °F 44.1 °F 69% 29.79 in 10.0 mi East 4.6 mph - N/A   Clear
6:53 AM 55.9 °F 48.0 °F 75% 29.79 in 10.0 mi ESE 5.8 mph - N/A   Partly Cloudy
7:53 AM 59.0 °F 53.1 °F 81% 29.79 in 10.0 mi ESE 8.1 mph - N/A   Clear
8:53 AM 64.0 °F 55.9 °F 75% 29.80 in 10.0 mi SE 12.7 mph - N/A   Clear
9:53 AM 66.9 °F 57.9 °F 73% 29.79 in 10.0 mi SE 15.0 mph 23.0 mph 0.00 in Rain Light Rain
10:53 AM 68.0 °F 59.0 °F 73% 29.82 in 10.0 mi South 9.2 mph - 0.00 in   Unknown
11:02 AM 68.0 °F 59.0 °F 73% 29.87 in 8.0 mi SW 9.2 mph - N/A Thunderstorm Overcast
11:17 AM 68.0 °F 60.8 °F 78% 29.88 in 10.0 mi WSW 12.7 mph - N/A   Overcast
11:53 AM 68.0 °F 60.1 °F 76% 29.82 in 10.0 mi WNW 4.6 mph - N/A   Scattered Clouds
12:53 PM 64.9 °F 61.0 °F 87% 29.80 in 5.0 mi ESE 8.1 mph - 0.01 in Rain Light Rain
1:53 PM 71.1 °F 61.0 °F 70% 29.77 in 9.0 mi South 10.4 mph - 0.00 in   Partly Cloudy
2:53 PM 77.0 °F 55.9 °F 48% 29.74 in 10.0 mi South 17.3 mph 26.5 mph 0.01 in   Clear
3:53 PM 80.1 °F 52.0 °F 38% 29.72 in 10.0 mi South 17.3 mph 28.8 mph N/A   Scattered Clouds
4:53 PM 78.8 °F 50.0 °F 36% 29.78 in 10.0 mi South 18.4 mph 25.3 mph N/A   Overcast
5:44 PM 68.0 °F 55.4 °F 64% 29.79 in 10.0 mi WSW 17.3 mph 26.5 mph 0.00 in Rain Light Rain
5:53 PM 66.9 °F 55.0 °F 66% 29.75 in 10.0 mi WSW 20.7 mph 27.6 mph 0.00 in Rain Light Rain
6:53 PM 66.0 °F 53.1 °F 63% 29.71 in 10.0 mi WNW 5.8 mph - 0.00 in   Clear
7:53 PM 66.0 °F 54.0 °F 65% 29.72 in 10.0 mi ESE 6.9 mph - 0.00 in Rain Light Rain
8:53 PM 63.0 °F 53.1 °F 70% 29.74 in 10.0 mi South 3.5 mph - 0.00 in   Clear
9:53 PM 60.1 °F 52.0 °F 75% 29.76 in 10.0 mi SE 5.8 mph - N/A   Clear
10:53 PM 57.9 °F 52.0 °F 81% 29.79 in 10.0 mi Calm Calm - N/A   Clear
11:53 PM 53.1 °F 48.9 °F 86% 29.80 in 10.0 mi Calm Calm - N/A   Clear